Glenwood, MN

10:15 AM CDT on July 25, 2017 (GMT -0500)
Glenwood Municipal

Weather History for KGHW - January, 2014

Change the Weather History Date:

Thursday, January 16, 2014

  Actual Average Record
Temperature  
Mean Temperature 16 °F -  
Max Temperature 35 °F 22 °F 44 °F (1961)
Min Temperature -2 °F 1 °F -30 °F (1982)
Degree Days  
Heating Degree Days 48    
Moisture  
Dew Point 7 °F    
Average Humidity 83    
Maximum Humidity 93    
Minimum Humidity 72    
Precipitation  
Precipitation 0.00 in - - ()
Sea Level Pressure  
Sea Level Pressure 29.66 in    
Wind  
Wind Speed 23 mph (NW)    
Max Wind Speed 32 mph    
Max Gust Speed 47 mph    
Visibility 3 miles    
Events Snow    
Averages and records for this station are not official NWS values.
T = Trace of Precipitation, MM = Missing Value Source: NWS Daily Summary

Daily Weather History Graph

Daily Weather History Graph

Search for Another Location

Airport or City:

Trip Planner

Search our weather history database for the weather conditions in past years. The results will help you decide how hot, cold, wet, or windy it might be!

Date:

Astronomy

Jan. 16, 2014 Rise Set
Actual Time 7:57 AM CST 5:05 PM CST
Civil Twilight 7:24 AM CST 5:38 PM CST
Nautical Twilight 6:47 AM CST 6:15 PM CST
Astronomical Twilight 6:12 AM CST 6:50 PM CST
Moon 6:03 PM CST (1/16) 7:47 AM CST (1/16)
Length of Visible Light 10h 14m
Length of Day
9h 07m
Full, 100% of the Moon is Illuminated
Jan 16
Full
Jan 23
Last Quarter
Jan 30
New
Feb 6
First Quarter
Feb 14
Full

Hourly Weather History & Observations

Time (CST) Temp. Windchill Dew Point Humidity Pressure Visibility Wind Dir Wind Speed Gust Speed Precip Events Conditions
12:13 AM 35.6 °F 23.4 °F 30.2 °F 81% 29.36 in 4.0 mi West 25.3 mph 29.9 mph N/A   Mostly Cloudy
12:34 AM 33.8 °F 22.2 °F 30.2 °F 87% 29.36 in 2.5 mi West 20.7 mph 28.8 mph N/A Snow Light Snow
12:53 AM 33.8 °F 21.9 °F 30.2 °F 87% 29.36 in 3.0 mi West 21.9 mph 27.6 mph N/A Snow Light Snow
1:14 AM 33.8 °F 20.5 °F 30.2 °F 87% 29.35 in 2.5 mi West 27.6 mph 33.4 mph N/A Snow Light Snow
1:33 AM 33.8 °F 22.5 °F 30.2 °F 87% 29.35 in 2.0 mi West 19.6 mph 32.2 mph N/A Snow Light Snow
1:46 AM 33.8 °F 21.9 °F 30.2 °F 87% 29.35 in 2.5 mi West 21.9 mph 31.1 mph N/A Snow Light Snow
2:01 AM 33.8 °F 22.5 °F 30.2 °F 87% 29.35 in 2.5 mi West 19.6 mph 31.1 mph N/A   Overcast
2:21 AM 33.8 °F 22.2 °F 30.2 °F 87% 29.35 in 2.0 mi West 20.7 mph 31.1 mph N/A   Overcast
2:41 AM 32.0 °F 19.2 °F 30.2 °F 93% 29.35 in 1.8 mi West 23.0 mph 27.6 mph N/A   Overcast
3:01 AM 33.8 °F 22.2 °F 30.2 °F 87% 29.35 in 2.5 mi West 20.7 mph 31.1 mph N/A   Overcast
3:21 AM 33.8 °F 20.1 °F 30.2 °F 87% 29.35 in 3.0 mi West 29.9 mph 38.0 mph N/A   Overcast
3:54 AM 33.8 °F 21.3 °F 30.2 °F 87% 29.35 in 7.0 mi WNW 24.2 mph 29.9 mph N/A   Overcast
4:01 AM 33.8 °F 21.6 °F 30.2 °F 87% 29.35 in 4.0 mi WNW 23.0 mph 27.6 mph N/A   Overcast
4:23 AM 32.0 °F 19.5 °F 30.2 °F 93% 29.35 in 7.0 mi WNW 21.9 mph 28.8 mph N/A   Overcast
4:41 AM 30.2 °F 15.4 °F 28.4 °F 93% 29.38 in 1.2 mi NW 28.8 mph 40.3 mph N/A   Overcast
5:01 AM 24.8 °F 8.4 °F 21.2 °F 86% 29.41 in 1.0 mi NNW 27.6 mph 46.0 mph N/A   Overcast
5:21 AM 23.0 °F 4.9 °F 19.4 °F 86% 29.44 in 1.0 mi NNW 32.2 mph 47.2 mph N/A   Overcast
5:44 AM 19.4 °F 2.1 °F 17.6 °F 93% 29.47 in 1.2 mi NNW 24.2 mph 40.3 mph N/A Snow Light Snow
5:53 AM 19.4 °F 1.4 °F 17.6 °F 93% 29.47 in 1.8 mi NW 26.5 mph 33.4 mph N/A Snow Light Snow
6:13 AM 19.4 °F 0.8 °F 15.8 °F 86% 29.49 in 1.8 mi NNW 28.8 mph 39.1 mph N/A Snow Light Snow
6:34 AM 17.6 °F -2.2 °F 12.2 °F 79% 29.49 in 3.0 mi NNW 31.1 mph 36.8 mph N/A   Haze
6:53 AM 15.8 °F -2.7 °F 10.4 °F 79% 29.50 in 1.8 mi NNW 24.2 mph 36.8 mph N/A Snow Light Snow
7:14 AM 15.8 °F -1.1 °F 10.4 °F 79% 29.52 in 4.0 mi NNW 19.6 mph 31.1 mph N/A   Haze
7:33 AM 15.8 °F -3.1 °F 8.6 °F 73% 29.53 in 5.0 mi NW 25.3 mph 29.9 mph N/A   Haze
7:51 AM 12.2 °F -6.7 °F 6.8 °F 79% 29.55 in 7.0 mi NNW 21.9 mph 27.6 mph N/A   Overcast
8:10 AM 12.2 °F -4.3 °F 6.8 °F 79% 29.56 in 7.0 mi NW 16.1 mph 26.5 mph N/A   Overcast
8:34 AM 10.4 °F -9.5 °F 6.8 °F 85% 29.57 in 4.0 mi NW 23.0 mph 29.9 mph N/A   Haze
8:53 AM 10.4 °F -8.2 °F 6.8 °F 85% 29.57 in 2.0 mi NW 19.6 mph 25.3 mph N/A Snow Light Snow
9:14 AM 10.4 °F -9.5 °F 6.8 °F 85% 29.58 in 1.8 mi NW 23.0 mph 27.6 mph N/A   Overcast
9:33 AM 10.4 °F -10.3 °F 5.0 °F 79% 29.58 in 2.5 mi NW 25.3 mph 32.2 mph N/A   Haze
9:54 AM 10.4 °F -10.7 °F 3.2 °F 73% 29.59 in 4.0 mi WNW 26.5 mph 34.5 mph N/A   Haze
10:13 AM 8.6 °F -14.8 °F 3.2 °F 79% 29.61 in 0.5 mi NW 32.2 mph 43.7 mph N/A Snow Light Snow
10:33 AM 6.8 °F -15.1 °F 1.4 °F 79% 29.62 in 1.2 mi NW 25.3 mph 36.8 mph N/A   Haze
10:54 AM 6.8 °F -13.8 °F -0.4 °F 72% 29.64 in 3.0 mi NW 21.9 mph 33.4 mph N/A   Haze
11:13 AM 5.0 °F -17.9 °F -0.4 °F 78% 29.65 in 0.8 mi NW 26.5 mph 38.0 mph N/A Snow Light Snow
11:34 AM 5.0 °F -15.7 °F -0.4 °F 78% 29.67 in 1.5 mi NW 20.7 mph 36.8 mph N/A   Haze
11:53 AM 3.2 °F -20.7 °F -2.2 °F 78% 29.67 in 1.2 mi NW 27.6 mph 39.1 mph N/A   Haze
12:13 PM 3.2 °F -19.0 °F -0.4 °F 85% 29.68 in 1.8 mi NW 23.0 mph 29.9 mph N/A   Haze
12:34 PM 3.2 °F -20.3 °F -2.2 °F 78% 29.69 in 1.5 mi NW 26.5 mph 31.1 mph N/A   Haze
12:53 PM 3.2 °F -20.7 °F -2.2 °F 78% 29.70 in 1.0 mi NW 27.6 mph 36.8 mph N/A   Haze
1:14 PM 3.2 °F -19.9 °F -0.4 °F 85% 29.70 in 0.8 mi NW 25.3 mph 33.4 mph N/A   Haze
1:33 PM 3.2 °F -19.9 °F -0.4 °F 85% 29.71 in 1.0 mi NW 25.3 mph 33.4 mph N/A   Haze
1:53 PM 3.2 °F -19.5 °F -2.2 °F 78% 29.72 in 1.0 mi NW 24.2 mph 32.2 mph N/A   Haze
2:13 PM 3.2 °F -19.5 °F -2.2 °F 78% 29.73 in 0.8 mi NW 24.2 mph 31.1 mph N/A Snow Light Snow
2:33 PM 3.2 °F -18.6 °F -0.4 °F 85% 29.75 in 1.0 mi NW 21.9 mph 33.4 mph N/A   Mostly Cloudy
2:53 PM 3.2 °F -18.6 °F -2.2 °F 78% 29.76 in 1.5 mi NW 21.9 mph 33.4 mph N/A Snow Light Snow
3:13 PM 3.2 °F -19.9 °F -2.2 °F 78% 29.77 in 1.5 mi NW 25.3 mph 32.2 mph N/A   Haze
3:34 PM 3.2 °F -19.9 °F -2.2 °F 78% 29.79 in 1.2 mi NW 25.3 mph 32.2 mph N/A   Haze
3:53 PM 3.2 °F -19.0 °F -0.4 °F 85% 29.80 in 0.2 mi NW 23.0 mph 32.2 mph N/A Snow Snow
4:14 PM 3.2 °F -17.1 °F -0.4 °F 85% 29.81 in 0.8 mi NW 18.4 mph 26.5 mph N/A Snow Light Snow
4:33 PM 1.4 °F -21.4 °F -0.4 °F 92% 29.82 in 0.2 mi NW 23.0 mph 31.1 mph N/A Snow Snow
4:53 PM 1.4 °F -22.3 °F -0.4 °F 92% 29.83 in 0.2 mi NW 25.3 mph 28.8 mph N/A Snow Light Snow
5:14 PM 1.4 °F -20.5 °F -2.2 °F 85% 29.84 in 0.5 mi NW 20.7 mph 25.3 mph N/A Snow Snow
5:33 PM 1.4 °F -18.8 °F -2.2 °F 85% 29.86 in 0.8 mi NW 17.3 mph 31.1 mph N/A Snow Light Snow
5:54 PM 1.4 °F -19.4 °F -2.2 °F 85% 29.87 in 2.0 mi NW 18.4 mph 27.6 mph N/A   Mostly Cloudy
6:13 PM 1.4 °F -18.8 °F -2.2 °F 85% 29.88 in 2.0 mi NW 17.3 mph - N/A   Mostly Cloudy
6:33 PM 1.4 °F -19.4 °F -2.2 °F 85% 29.88 in 2.0 mi NW 18.4 mph 26.5 mph N/A   Haze
6:54 PM 1.4 °F -19.9 °F -2.2 °F 85% 29.89 in 1.8 mi NW 19.6 mph 29.9 mph N/A   Mostly Cloudy
7:13 PM 1.4 °F -19.9 °F -4.0 °F 78% 29.90 in 4.0 mi NW 19.6 mph 24.2 mph N/A   Haze
7:34 PM 1.4 °F -21.4 °F -4.0 °F 78% 29.90 in 2.0 mi NW 23.0 mph 28.8 mph N/A   Haze
7:53 PM 1.4 °F -19.9 °F -2.2 °F 85% 29.91 in 2.5 mi NW 19.6 mph 27.6 mph N/A   Overcast
8:13 PM 1.4 °F -20.5 °F -4.0 °F 78% 29.91 in 4.0 mi NW 20.7 mph - N/A   Haze
8:33 PM 1.4 °F -19.9 °F -4.0 °F 78% 29.92 in 4.0 mi NW 19.6 mph 29.9 mph N/A   Haze
8:53 PM 1.4 °F -19.9 °F -4.0 °F 78% 29.93 in 3.0 mi NW 19.6 mph 26.5 mph N/A   Haze
9:14 PM 1.4 °F -20.5 °F -4.0 °F 78% 29.93 in 3.0 mi NW 20.7 mph 28.8 mph N/A   Haze
9:33 PM -0.4 °F -23.8 °F -5.8 °F 78% 29.94 in 4.0 mi NW 23.0 mph 32.2 mph N/A   Haze
9:53 PM -0.4 °F -24.3 °F -5.8 °F 78% 29.94 in 7.0 mi NNW 24.2 mph 31.1 mph N/A   Clear
10:13 PM -0.4 °F -22.3 °F -5.8 °F 78% 29.95 in 7.0 mi NNW 19.6 mph 25.3 mph N/A   Clear
10:33 PM -0.4 °F -23.8 °F -5.8 °F 78% 29.95 in 10.0 mi NNW 23.0 mph 28.8 mph N/A   Clear
10:54 PM -0.4 °F -22.3 °F -5.8 °F 78% 29.96 in 10.0 mi NNW 19.6 mph 26.5 mph N/A   Clear
11:13 PM -2.2 °F -22.2 °F -7.6 °F 78% 29.96 in 10.0 mi NNW 15.0 mph 20.7 mph N/A   Clear
11:33 PM -2.2 °F -20.7 °F -7.6 °F 78% 29.97 in 10.0 mi NNW 12.7 mph 20.7 mph N/A   Clear
11:54 PM -2.2 °F -21.5 °F -7.6 °F 78% 29.97 in 10.0 mi NNW 13.8 mph 19.6 mph N/A   Clear